AEE368 LGAV-LGSR

Flight info

Callsign AEE368
Flight time 0h 33m
Altitude 17000
Route KEA UL607 NETIS M601 PEXAN
Aircraft A320/M-SDE3FGHIRWY/LB1

Departure

Time 2026-05-07 13:07
Airport Athens Eleftherios Venizelos International Airport (LGAV)

Arrival

Time 2026-05-07 13:40
Airport Santorini International Airport (LGSR)
Time Latitude Longitude Altitude Speed Heading
2026-05-07 12:32 37.94118 23.95129 300 ft 0 kts 37°
2026-05-07 12:53 37.94118 23.95128 303 ft 0 kts 37°
2026-05-07 12:54 37.94108 23.95119 302 ft 3 kts 37°
2026-05-07 12:54 37.94092 23.95103 302 ft 3 kts 37°
2026-05-07 12:54 37.94077 23.95088 301 ft 3 kts 53°
2026-05-07 12:54 37.94069 23.95067 301 ft 3 kts 89°
2026-05-07 12:55 37.94072 23.95044 301 ft 3 kts 120°
2026-05-07 12:55 37.94076 23.95035 303 ft 0 kts 126°
2026-05-07 12:59 37.94065 23.95055 301 ft 5 kts 126°
2026-05-07 12:59 37.94040 23.95097 301 ft 8 kts 126°
2026-05-07 13:00 37.93995 23.95174 301 ft 12 kts 126°
2026-05-07 13:00 37.93951 23.95251 300 ft 13 kts 126°
2026-05-07 13:00 37.93889 23.95357 300 ft 14 kts 128°
2026-05-07 13:00 37.93843 23.95446 300 ft 10 kts 95°
2026-05-07 13:01 37.93896 23.95515 298 ft 13 kts 36°
2026-05-07 13:01 37.93973 23.95588 298 ft 15 kts 38°
2026-05-07 13:01 37.94063 23.95674 297 ft 17 kts 37°
2026-05-07 13:01 37.94165 23.95770 300 ft 19 kts 37°
2026-05-07 13:02 37.94279 23.95878 301 ft 22 kts 37°
2026-05-07 13:02 37.94404 23.95997 300 ft 22 kts 37°
2026-05-07 13:02 37.94534 23.96120 301 ft 25 kts 37°
2026-05-07 13:02 37.94641 23.96222 300 ft 10 kts 37°
2026-05-07 13:03 37.94705 23.96281 300 ft 11 kts 36°
2026-05-07 13:03 37.94772 23.96342 300 ft 13 kts 36°
2026-05-07 13:03 37.94847 23.96416 301 ft 15 kts 37°
2026-05-07 13:03 37.94934 23.96499 302 ft 17 kts 37°
2026-05-07 13:04 37.95032 23.96592 302 ft 19 kts 37°
2026-05-07 13:04 37.95141 23.96696 304 ft 21 kts 37°
2026-05-07 13:04 37.95245 23.96794 304 ft 14 kts 36°
2026-05-07 13:04 37.95300 23.96847 305 ft 10 kts 42°
2026-05-07 13:05 37.95287 23.96916 306 ft 10 kts 138°
2026-05-07 13:05 37.95248 23.96980 309 ft 8 kts 124°
2026-05-07 13:05 37.95216 23.97033 310 ft 7 kts 140°
2026-05-07 13:05 37.95177 23.97008 310 ft 4 kts 218°
2026-05-07 13:06 37.95170 23.97002 310 ft 1 kts 216°
2026-05-07 13:06 37.95071 23.96908 309 ft 48 kts 217°
2026-05-07 13:06 37.94616 23.96476 295 ft 113 kts 217°
2026-05-07 13:06 37.93858 23.95752 368 ft 152 kts 217°
2026-05-07 13:07 37.93023 23.95021 1106 ft 144 kts 208°
2026-05-07 13:07 37.92118 23.94417 1718 ft 147 kts 205°
2026-05-07 13:07 37.91150 23.93775 2051 ft 169 kts 208°
2026-05-07 13:07 37.90069 23.93039 2448 ft 188 kts 208°
2026-05-07 13:08 37.88832 23.92190 2751 ft 216 kts 207°
2026-05-07 13:08 37.87436 23.91230 3219 ft 236 kts 209°
2026-05-07 13:08 37.85990 23.90235 4187 ft 238 kts 209°
2026-05-07 13:08 37.84520 23.89229 5183 ft 241 kts 209°
2026-05-07 13:09 37.83037 23.88218 6131 ft 244 kts 209°
2026-05-07 13:09 37.81461 23.87350 6870 ft 257 kts 194°
2026-05-07 13:09 37.79623 23.87430 7493 ft 276 kts 164°
2026-05-07 13:09 37.77930 23.88671 8257 ft 288 kts 142°
2026-05-07 13:10 37.76391 23.90325 9123 ft 293 kts 141°
2026-05-07 13:10 37.74832 23.92028 9981 ft 299 kts 140°
2026-05-07 13:10 37.73252 23.93751 10720 ft 306 kts 140°
2026-05-07 13:10 37.71587 23.95557 11149 ft 324 kts 140°
2026-05-07 13:11 37.69831 23.97450 11571 ft 340 kts 140°
2026-05-07 13:11 37.68003 23.99411 12143 ft 349 kts 141°
2026-05-07 13:11 37.66128 24.01416 12829 ft 356 kts 141°
2026-05-07 13:11 37.64226 24.03449 13523 ft 361 kts 141°
2026-05-07 13:12 37.62295 24.05514 14170 ft 367 kts 141°
2026-05-07 13:12 37.60338 24.07605 14808 ft 370 kts 141°
2026-05-07 13:12 37.58367 24.09709 15466 ft 373 kts 142°
2026-05-07 13:12 37.56380 24.11828 16103 ft 376 kts 142°
2026-05-07 13:13 37.54401 24.13935 16723 ft 379 kts 142°
2026-05-07 13:13 37.52352 24.16113 17060 ft 382 kts 142°
2026-05-07 13:13 37.50349 24.18242 17139 ft 382 kts 142°
2026-05-07 13:13 37.48294 24.20428 17147 ft 381 kts 142°
2026-05-07 13:14 37.46294 24.22553 17143 ft 381 kts 142°
2026-05-07 13:14 37.44266 24.24703 17143 ft 381 kts 142°
2026-05-07 13:14 37.42235 24.26852 17149 ft 381 kts 142°
2026-05-07 13:14 37.40207 24.28997 17150 ft 381 kts 142°
2026-05-07 13:15 37.38180 24.31140 17147 ft 379 kts 142°
2026-05-07 13:15 37.36168 24.33269 17146 ft 378 kts 142°
2026-05-07 13:15 37.34156 24.35392 17146 ft 378 kts 142°
2026-05-07 13:15 37.32145 24.37515 17151 ft 377 kts 142°
2026-05-07 13:16 37.30137 24.39639 17144 ft 377 kts 142°
2026-05-07 13:16 37.28127 24.41765 17147 ft 378 kts 142°
2026-05-07 13:16 37.26117 24.43886 17146 ft 378 kts 142°
2026-05-07 13:16 37.24103 24.46008 17147 ft 378 kts 142°
2026-05-07 13:17 37.22089 24.48123 17151 ft 378 kts 142°
2026-05-07 13:17 37.20070 24.50241 17154 ft 378 kts 142°
2026-05-07 13:17 37.18054 24.52358 17154 ft 378 kts 142°
2026-05-07 13:17 37.16037 24.54476 17147 ft 378 kts 142°
2026-05-07 13:18 37.14019 24.56593 17158 ft 378 kts 142°
2026-05-07 13:18 37.12003 24.58708 17182 ft 378 kts 142°
2026-05-07 13:18 37.09986 24.60825 17180 ft 378 kts 142°
2026-05-07 13:18 37.07971 24.62942 17177 ft 378 kts 142°
2026-05-07 13:19 37.05955 24.65056 17170 ft 378 kts 142°
2026-05-07 13:19 37.03934 24.67173 17156 ft 379 kts 142°
2026-05-07 13:19 37.01903 24.69292 17152 ft 380 kts 142°
2026-05-07 13:19 36.99868 24.71411 17148 ft 380 kts 142°
2026-05-07 13:20 36.97835 24.73532 17152 ft 380 kts 142°
2026-05-07 13:20 36.95830 24.75622 16957 ft 371 kts 142°
2026-05-07 13:20 36.93857 24.77675 16535 ft 367 kts 142°
2026-05-07 13:20 36.91875 24.79658 16074 ft 363 kts 148°
2026-05-07 13:21 36.89753 24.81333 15623 ft 359 kts 150°
2026-05-07 13:21 36.87640 24.82976 15189 ft 357 kts 150°
2026-05-07 13:21 36.85532 24.84604 14738 ft 355 kts 150°
2026-05-07 13:21 36.83433 24.86220 14310 ft 353 kts 150°
2026-05-07 13:22 36.81345 24.87826 13890 ft 351 kts 150°
2026-05-07 13:22 36.79273 24.89419 13505 ft 347 kts 150°
2026-05-07 13:22 36.77241 24.90984 13246 ft 340 kts 149°
2026-05-07 13:22 36.75249 24.92522 12989 ft 333 kts 149°
2026-05-07 13:23 36.73357 24.94140 12744 ft 327 kts 140°
2026-05-07 13:23 36.71789 24.96161 12509 ft 322 kts 128°
2026-05-07 13:23 36.70965 24.97689 12354 ft 320 kts 119°
2026-05-07 13:23 36.70069 25.00215 12097 ft 318 kts 107°
2026-05-07 13:24 36.69608 25.02888 11860 ft 315 kts 96°
2026-05-07 13:24 36.69336 25.05595 11625 ft 314 kts 96°
2026-05-07 13:24 36.69058 25.08284 11387 ft 312 kts 96°
2026-05-07 13:24 36.68774 25.10963 11146 ft 311 kts 96°
2026-05-07 13:25 36.68491 25.13623 10905 ft 309 kts 96°
2026-05-07 13:25 36.68207 25.16274 10690 ft 308 kts 96°
2026-05-07 13:25 36.68044 25.18919 10467 ft 304 kts 88°
2026-05-07 13:25 36.68107 25.21539 10227 ft 301 kts 87°
2026-05-07 13:26 36.68169 25.24137 10044 ft 299 kts 87°
2026-05-07 13:26 36.68227 25.26725 9923 ft 299 kts 87°
2026-05-07 13:26 36.68284 25.29313 9791 ft 299 kts 87°
2026-05-07 13:26 36.68342 25.31897 9509 ft 299 kts 88°
2026-05-07 13:27 36.68401 25.34486 9051 ft 297 kts 87°
2026-05-07 13:27 36.68459 25.37049 8424 ft 295 kts 88°
2026-05-07 13:27 36.68515 25.39585 7840 ft 291 kts 88°
2026-05-07 13:27 36.68557 25.42073 7314 ft 285 kts 91°
2026-05-07 13:28 36.68530 25.44531 6743 ft 281 kts 90°
2026-05-07 13:28 36.68568 25.46944 6209 ft 277 kts 89°
2026-05-07 13:28 36.68637 25.49333 5643 ft 274 kts 88°
2026-05-07 13:28 36.68448 25.51661 5075 ft 270 kts 110°
2026-05-07 13:29 36.67453 25.53590 4491 ft 265 kts 140°
2026-05-07 13:29 36.65879 25.54712 3944 ft 260 kts 160°
2026-05-07 13:29 36.64159 25.55214 3566 ft 247 kts 175°
2026-05-07 13:29 36.62562 25.55717 3501 ft 236 kts 150°
2026-05-07 13:30 36.61386 25.57164 3505 ft 244 kts 119°
2026-05-07 13:30 36.60968 25.59209 3518 ft 249 kts 90°
2026-05-07 13:30 36.61355 25.61297 3520 ft 251 kts 63°
2026-05-07 13:30 36.62457 25.62946 3507 ft 250 kts 35°
2026-05-07 13:31 36.64036 25.63789 3503 ft 249 kts
2026-05-07 13:31 36.65743 25.63657 3499 ft 247 kts 340°
2026-05-07 13:31 36.67214 25.62608 3501 ft 244 kts 314°
2026-05-07 13:31 36.68152 25.60876 3497 ft 242 kts 288°
2026-05-07 13:32 36.68428 25.58831 3500 ft 240 kts 272°
2026-05-07 13:32 36.68532 25.56750 3511 ft 241 kts 272°
2026-05-07 13:32 36.68637 25.54667 3515 ft 241 kts 272°
2026-05-07 13:32 36.68688 25.52588 3501 ft 240 kts 264°
2026-05-07 13:33 36.68339 25.50566 3315 ft 238 kts 248°
2026-05-07 13:33 36.67730 25.48663 3233 ft 234 kts 248°
2026-05-07 13:33 36.67153 25.46803 3197 ft 228 kts 248°
2026-05-07 13:33 36.66589 25.44962 3097 ft 227 kts 249°
2026-05-07 13:34 36.66035 25.43153 3006 ft 226 kts 249°
2026-05-07 13:34 36.64925 25.39577 3003 ft 211 kts 243°
2026-05-07 13:34 36.64014 25.38227 2996 ft 207 kts 214°
2026-05-07 13:35 36.62684 25.37590 2994 ft 207 kts 186°
2026-05-07 13:35 36.61261 25.37836 3011 ft 208 kts 161°
2026-05-07 13:35 36.59945 25.38461 3018 ft 199 kts 160°
2026-05-07 13:35 36.58659 25.39073 3009 ft 196 kts 161°
2026-05-07 13:36 36.57438 25.39657 3019 ft 180 kts 161°
2026-05-07 13:36 36.56298 25.40197 3022 ft 172 kts 161°
2026-05-07 13:36 36.55191 25.40723 3034 ft 169 kts 161°
2026-05-07 13:36 36.54087 25.41243 2925 ft 172 kts 161°
2026-05-07 13:37 36.52980 25.41764 2655 ft 168 kts 161°
2026-05-07 13:37 36.51889 25.42277 2421 ft 167 kts 160°
2026-05-07 13:37 36.50822 25.42781 2204 ft 158 kts 159°
2026-05-07 13:37 36.49821 25.43256 1993 ft 151 kts 159°
2026-05-07 13:38 36.48873 25.43703 1801 ft 143 kts 159°
2026-05-07 13:38 36.47952 25.44137 1617 ft 140 kts 159°
2026-05-07 13:38 36.47043 25.44571 1438 ft 139 kts 159°
2026-05-07 13:38 36.46138 25.45003 1257 ft 139 kts 159°
2026-05-07 13:39 36.45235 25.45428 1066 ft 139 kts 159°
2026-05-07 13:39 36.44333 25.45844 886 ft 137 kts 159°
2026-05-07 13:39 36.43446 25.46258 704 ft 135 kts 158°
2026-05-07 13:39 36.42575 25.46672 489 ft 133 kts 157°
2026-05-07 13:40 36.41717 25.47077 300 ft 131 kts 157°
2026-05-07 13:40 36.40868 25.47468 124 ft 130 kts 157°
2026-05-07 13:40 36.40112 25.47827 88 ft 83 kts 160°
2026-05-07 13:40 36.39721 25.48011 75 ft 48 kts 159°
2026-05-07 13:41 36.39430 25.48147 64 ft 44 kts 160°
2026-05-07 13:41 36.39180 25.48267 62 ft 30 kts 159°
2026-05-07 13:41 36.39049 25.48319 55 ft 8 kts 183°
2026-05-07 13:41 36.39012 25.48245 51 ft 12 kts 249°
2026-05-07 13:42 36.39005 25.48182 54 ft 6 kts 311°
2026-05-07 13:42 36.39052 25.48156 56 ft 8 kts 340°
2026-05-07 13:42 36.39099 25.48135 58 ft 7 kts 340°
2026-05-07 13:42 36.39141 25.48115 60 ft 6 kts 339°
2026-05-07 13:43 36.39203 25.48086 58 ft 15 kts 339°
2026-05-07 13:43 36.39301 25.48039 66 ft 15 kts 339°
2026-05-07 13:43 36.39400 25.47992 70 ft 15 kts 339°
2026-05-07 13:43 36.39501 25.47945 72 ft 16 kts 339°
2026-05-07 13:44 36.39605 25.47896 70 ft 16 kts 339°
2026-05-07 13:44 36.39712 25.47845 81 ft 17 kts 339°
2026-05-07 13:44 36.39824 25.47793 87 ft 18 kts 339°
2026-05-07 13:44 36.39943 25.47736 89 ft 19 kts 339°
2026-05-07 13:45 36.40064 25.47679 90 ft 15 kts 339°
2026-05-07 13:45 36.40132 25.47645 90 ft 8 kts 328°
2026-05-07 13:45 36.40126 25.47579 89 ft 8 kts 253°
2026-05-07 13:45 36.40161 25.47532 90 ft 9 kts 340°
2026-05-07 13:46 36.40224 25.47503 91 ft 11 kts 339°
2026-05-07 13:46 36.40275 25.47475 89 ft 7 kts 320°
2026-05-07 13:46 36.40270 25.47428 89 ft 2 kts 247°
2026-05-07 13:46 36.40265 25.47412 91 ft 1 kts 248°
2026-05-07 13:47 36.40265 25.47411 91 ft 0 kts 248°